Starlink 11537

operational
NORAD ID: 62911 Int'l Des: 2025-027 Owner: SPXS Country: US Constellation: starlink
LEOCIRCULAR

Über Starlink 11537

Beschreibung wird geladen...

Live-Position

3D-Globus wird geladen...

Nächste Überflüge

Höhenverlauf

Altitude vs Time

uPlot chart will show altitude changes over time

Zweizeiliger Elementsatz

1 62911U 25027E 25257.44942856 .00122191 00000-0 94055-3 0 9990
2 62911 43.0031 330.0255 0001410 231.1403 128.9339 15.70872304 35471
Epoch: 14. Sept. 2025 • Age: 20 hours

Aktueller Status

Höhe 356.9 km
Geschwindigkeit 7.70 km/s
Subsatellitenpunkt 31.48°N, 2.02°E
Startdatum 8. Feb. 2025
Alter 0.5 years
Typ internet

Technische Details

Klassifizierung Payload
Masse 960.00 kg
Trockenmasse 910.00 kg
Gesamtmasse 960.00 kg
Länge 0.30 m
Durchmesser 4.10 m
Spannweite 29.00 m
Form Box + pan
Hersteller SPXS
Bus-Typ Starlink V2MD
Phasenstatus In Orbit
Besitzer/Staat SPXS/US

Große Konstellationen

Loading constellations...